TimeEST,TemperatureF,Dew PointF,Humidity,Sea Level PressureIn,VisibilityMPH,Wind Direction,Wind SpeedMPH,Gust SpeedMPH,PrecipitationIn,Events,Conditions,WindDirDegrees,DateUTC
12:53 AM,53.1,39.0,59,30.32,10.0,Calm,Calm,-,N/A,,Clear,0,2013-01-24 05:53:00
1:53 AM,50.0,39.9,68,30.30,10.0,Calm,Calm,-,N/A,,Clear,0,2013-01-24 06:53:00
2:53 AM,48.0,39.9,74,30.29,10.0,Calm,Calm,-,N/A,,Clear,0,2013-01-24 07:53:00
3:53 AM,46.9,41.0,80,30.29,10.0,North,5.8,-,N/A,,Clear,360,2013-01-24 08:53:00
4:53 AM,48.0,41.0,77,30.29,10.0,Calm,Calm,-,N/A,,Clear,0,2013-01-24 09:53:00
5:53 AM,50.0,42.1,74,30.31,10.0,NNE,3.5,-,N/A,,Clear,30,2013-01-24 10:53:00
6:53 AM,50.0,42.1,74,30.32,10.0,Calm,Calm,-,N/A,,Clear,0,2013-01-24 11:53:00
7:53 AM,50.0,42.1,74,30.33,10.0,Calm,Calm,-,N/A,,Clear,0,2013-01-24 12:53:00
8:53 AM,55.9,46.9,72,30.35,10.0,North,4.6,-,N/A,,Clear,10,2013-01-24 13:53:00
9:53 AM,63.0,46.9,56,30.36,10.0,North,4.6,-,N/A,,Clear,360,2013-01-24 14:53:00
10:53 AM,68.0,44.1,42,30.36,10.0,NNW,6.9,-,N/A,,Clear,330,2013-01-24 15:53:00
11:53 AM,66.0,48.9,54,30.34,9.0,WSW,6.9,-,N/A,,Clear,240,2013-01-24 16:53:00
12:53 PM,70.0,46.9,44,30.31,10.0,Calm,Calm,-,N/A,,Clear,0,2013-01-24 17:53:00
1:53 PM,72.0,45.0,38,30.28,8.0,NW,15.0,-,N/A,,Partly Cloudy,310,2013-01-24 18:53:00
2:53 PM,71.1,43.0,36,30.27,10.0,NW,11.5,-,N/A,,Partly Cloudy,310,2013-01-24 19:53:00
3:53 PM,69.1,48.0,47,30.27,10.0,NNW,15.0,-,N/A,,Clear,340,2013-01-24 20:53:00
4:53 PM,68.0,48.9,50,30.28,10.0,NNW,10.4,-,N/A,,Clear,330,2013-01-24 21:53:00
5:53 PM,64.0,48.9,58,30.27,10.0,NNW,5.8,-,N/A,,Clear,330,2013-01-24 22:53:00
6:53 PM,61.0,50.0,67,30.29,10.0,NNW,5.8,-,N/A,,Clear,330,2013-01-24 23:53:00
7:53 PM,60.1,52.0,75,30.30,10.0,NNW,3.5,-,N/A,,Clear,330,2013-01-25 00:53:00
8:53 PM,57.9,51.1,78,30.30,10.0,Calm,Calm,-,N/A,,Partly Cloudy,0,2013-01-25 01:53:00
9:53 PM,57.0,52.0,83,30.30,10.0,Calm,Calm,-,N/A,,Clear,0,2013-01-25 02:53:00
10:53 PM,57.0,53.1,87,30.31,8.0,Calm,Calm,-,N/A,,Clear,0,2013-01-25 03:53:00
11:53 PM,55.9,52.0,87,30.31,7.0,Calm,Calm,-,N/A,,Clear,0,2013-01-25 04:53:00